Weather History for Birmingham, AL

Change the Weather History Date:

Saturday, January 25, 2014

  Actual Average Record
Temperature  
Mean Temperature 34 °F 44 °F  
Max Temperature 48 °F 54 °F 78 °F (1950)
Min Temperature 20 °F 34 °F 7 °F (1905)
Degree Days  
Heating Degree Days 31 21  
Month to date heating degree days 687 534  
Since 1 July heating degree days 1770 1581  
Moisture  
Dew Point 12 °F    
Average Humidity 51    
Maximum Humidity 75    
Minimum Humidity 26    
Precipitation  
Precipitation 0.00 in 0.16 in 1.66 in (1975)
Month to date precipitation 1.48 3.85  
Year to date precipitation 1.48 3.85  
Snow  
Snow 0.00 in 0.00 in - ()
Month to date snowfall 0.0 0.5  
Since 1 July snowfall 0.0 0.6  
Snow Depth 0.00 in    
Sea Level Pressure  
Sea Level Pressure 30.07 in    
Wind  
Wind Speed 8 mph (SW)    
Max Wind Speed 18 mph    
Max Gust Speed 22 mph    
Visibility 10 miles    
Events      
T = Trace of Precipitation, MM = Missing Value Source: NWS Daily Summary

Daily Weather History Graph

Daily Weather History Graph

Search for Another Location

Airport:

Trip Planner

Search our weather history database for the weather conditions in past years. The results will help you decide how hot, cold, wet, or windy it might be!

Date:

Astronomy

Jan. 25, 2014 Rise Set
Actual Time 6:47 AM CST 5:11 PM CST
Civil Twilight 6:21 AM CST 5:38 PM CST
Nautical Twilight 5:50 AM CST 6:08 PM CST
Astronomical Twilight 5:21 AM CST 6:37 PM CST
Moon 1:20 AM CST (1/25) 12:11 PM CST (1/25)
Length of Visible Light 11h 17m
Length of Day
10h 24m
Waning Crescent, 34% of the Moon is Illuminated
Jan 25
Waning Crescent
Jan 30
New
Feb 6
First Quarter
Feb 14
Full
Feb 22
Last Quarter

Hourly Weather History & Observations

Time (CST) Temp. Windchill Dew Point Humidity Pressure Visibility Wind Dir Wind Speed Gust Speed Precip Events Conditions
12:53 AM 23.0 °F 17.0 °F 1.9 °F 40% 30.25 in 10.0 mi South 4.6 mph - N/A   Clear
1:53 AM 25.0 °F 16.3 °F 1.0 °F 36% 30.23 in 10.0 mi SW 8.1 mph - N/A   Clear
2:53 AM 24.1 °F 15.2 °F 1.0 °F 37% 30.21 in 10.0 mi SW 8.1 mph - N/A   Clear
3:53 AM 24.1 °F 16.0 °F 3.0 °F 40% 30.18 in 10.0 mi SW 6.9 mph - N/A   Clear
4:53 AM 24.1 °F 16.0 °F 3.9 °F 42% 30.16 in 10.0 mi SSW 6.9 mph - N/A   Partly Cloudy
5:53 AM 24.1 °F 13.7 °F 3.9 °F 42% 30.14 in 10.0 mi SSW 10.4 mph - N/A   Partly Cloudy
6:53 AM 24.1 °F 13.7 °F 9.0 °F 53% 30.13 in 10.0 mi SSW 10.4 mph - N/A   Partly Cloudy
7:53 AM 26.1 °F 18.4 °F 10.0 °F 51% 30.11 in 10.0 mi SW 6.9 mph - N/A   Mostly Cloudy
8:53 AM 30.0 °F 21.1 °F 9.0 °F 41% 30.07 in 10.0 mi SW 10.4 mph - N/A   Scattered Clouds
9:53 AM 34.0 °F 24.2 °F 10.0 °F 37% 30.05 in 10.0 mi SW 15.0 mph - N/A   Mostly Cloudy
10:53 AM 37.0 °F 28.5 °F 10.9 °F 34% 30.06 in 10.0 mi SW 13.8 mph - N/A   Overcast
11:53 AM 39.0 °F 30.6 °F 10.0 °F 30% 30.01 in 10.0 mi WSW 15.0 mph - N/A   Overcast
12:53 PM 39.9 °F 31.4 °F 12.0 °F 32% 29.99 in 10.0 mi WSW 16.1 mph - N/A   Mostly Cloudy
1:53 PM 44.1 °F 38.1 °F 12.9 °F 28% 29.97 in 10.0 mi West 11.5 mph - N/A   Mostly Cloudy
2:53 PM 46.0 °F 41.0 °F 14.0 °F 28% 29.96 in 10.0 mi WSW 10.4 mph - N/A   Mostly Cloudy
3:53 PM 48.0 °F - 17.1 °F 29% 29.97 in 10.0 mi WSW 10.4 mph - N/A   Mostly Cloudy
4:53 PM 46.0 °F 42.5 °F 18.0 °F 33% 29.99 in 10.0 mi West 6.9 mph - N/A   Mostly Cloudy
5:53 PM 43.0 °F 38.8 °F 19.0 °F 38% 30.02 in 10.0 mi WNW 6.9 mph - N/A   Scattered Clouds
6:53 PM 39.9 °F 36.7 °F 19.9 °F 45% 30.04 in 10.0 mi West 4.6 mph - N/A   Clear
7:53 PM 33.1 °F - 19.9 °F 59% 30.04 in 10.0 mi Calm Calm - N/A   Clear
8:53 PM 30.9 °F - 21.0 °F 67% 30.05 in 10.0 mi Calm Calm - N/A   Clear
9:53 PM 30.0 °F - 21.0 °F 69% 30.05 in 10.0 mi Calm Calm - N/A   Clear
10:53 PM 28.9 °F - 21.0 °F 72% 30.05 in 10.0 mi Calm Calm - N/A   Clear
11:53 PM 28.9 °F - 21.0 °F 72% 30.05 in 10.0 mi Calm Calm - N/A   Clear